Time,TemperatureF,DewpointF,PressureIn,WindDirection,WindDirectionDegrees,WindSpeedMPH,WindSpeedGustMPH,Humidity,HourlyPrecipIn,Conditions,Clouds,dailyrainin,SoftwareType,DateUTC
2015-08-27 00:03:00,83.1,79.2,29.91,ENE,76,1.0,1.0,88,0.00,,,0.00,VWS V14.01,2015-08-27 06:03:00,
2015-08-27 00:08:00,83.1,79.2,29.91,ENE,72,0.0,2.0,88,0.00,,,0.00,VWS V14.01,2015-08-27 06:08:00,
2015-08-27 00:13:00,83.1,79.5,29.91,East,81,0.0,2.0,89,0.00,,,0.00,VWS V14.01,2015-08-27 06:13:00,
2015-08-27 00:18:00,83.0,79.1,29.91,ENE,77,0.0,4.0,88,0.00,,,0.00,VWS V14.01,2015-08-27 06:18:00,
2015-08-27 00:23:00,83.0,79.4,29.91,East,79,3.0,5.0,89,0.00,,,0.00,VWS V14.01,2015-08-27 06:23:00,
2015-08-27 00:27:00,83.0,79.4,29.91,ENE,65,2.0,5.0,89,0.00,,,0.00,VWS V14.01,2015-08-27 06:27:00,
2015-08-27 00:32:00,83.0,79.1,29.91,East,88,1.0,5.0,88,0.00,,,0.00,VWS V14.01,2015-08-27 06:32:00,
2015-08-27 00:37:00,83.0,79.1,29.91,East,91,0.0,3.0,88,0.00,,,0.00,VWS V14.01,2015-08-27 06:37:00,
2015-08-27 00:42:00,82.9,79.0,29.91,ENE,68,5.0,5.0,88,0.00,,,0.00,VWS V14.01,2015-08-27 06:42:00,
2015-08-27 00:47:00,82.9,79.0,29.90,ENE,72,1.0,5.0,88,0.00,,,0.00,VWS V14.01,2015-08-27 06:47:00,
2015-08-27 00:52:00,82.9,79.0,29.90,ENE,62,2.0,5.0,88,0.00,,,0.00,VWS V14.01,2015-08-27 06:52:00,
2015-08-27 00:57:00,82.9,79.0,29.90,East,79,3.0,5.0,88,0.00,,,0.00,VWS V14.01,2015-08-27 06:57:00,
2015-08-27 01:02:00,82.9,79.0,29.89,ENE,70,1.0,5.0,88,0.00,,,0.00,VWS V14.01,2015-08-27 07:02:00,
2015-08-27 01:07:00,82.9,79.0,29.89,ENE,60,0.0,6.0,88,0.00,,,0.00,VWS V14.01,2015-08-27 07:07:00,
2015-08-27 01:12:00,83.0,79.1,29.89,ENE,69,4.0,8.0,88,0.00,,,0.00,VWS V14.01,2015-08-27 07:12:00,
2015-08-27 01:17:00,83.0,79.1,29.89,ENE,66,8.0,8.0,88,0.00,,,0.00,VWS V14.01,2015-08-27 07:17:00,
2015-08-27 01:22:00,83.1,79.5,29.89,NE,54,7.0,10.0,89,0.00,,,0.00,VWS V14.01,2015-08-27 07:22:00,
2015-08-27 01:27:00,83.2,79.6,29.89,East,81,2.0,10.0,89,0.00,,,0.00,VWS V14.01,2015-08-27 07:27:00,
2015-08-27 01:32:00,83.1,79.2,29.89,ENE,70,7.0,10.0,88,0.00,,,0.00,VWS V14.01,2015-08-27 07:32:00,
2015-08-27 01:37:00,83.0,79.1,29.89,ENE,74,7.0,10.0,88,0.00,,,0.00,VWS V14.01,2015-08-27 07:37:00,
2015-08-27 01:42:00,83.0,79.1,29.89,ENE,62,5.0,12.0,88,0.00,,,0.00,VWS V14.01,2015-08-27 07:42:00,
2015-08-27 01:47:00,83.1,79.2,29.89,East,81,7.0,12.0,88,0.00,,,0.00,VWS V14.01,2015-08-27 07:47:00,
2015-08-27 01:52:00,83.2,79.3,29.90,ENE,69,5.0,12.0,88,0.00,,,0.00,VWS V14.01,2015-08-27 07:52:00,
2015-08-27 01:57:00,83.2,79.3,29.90,ENE,68,4.0,12.0,88,0.00,,,0.00,VWS V14.01,2015-08-27 07:57:00,
2015-08-27 02:02:00,83.2,78.9,29.90,East,86,2.0,12.0,87,0.00,,,0.00,VWS V14.01,2015-08-27 08:02:00,
2015-08-27 02:07:00,83.1,78.8,29.90,ENE,71,1.0,6.0,87,0.00,,,0.00,VWS V14.01,2015-08-27 08:07:00,
2015-08-27 02:12:00,83.2,78.9,29.90,East,96,2.0,6.0,87,0.00,,,0.00,VWS V14.01,2015-08-27 08:12:00,
2015-08-27 02:17:00,83.1,78.8,29.90,East,82,5.0,6.0,87,0.00,,,0.00,VWS V14.01,2015-08-27 08:17:00,
2015-08-27 02:22:00,83.0,78.7,29.90,ENE,76,3.0,6.0,87,0.00,,,0.00,VWS V14.01,2015-08-27 08:22:00,
2015-08-27 02:27:00,83.0,78.7,29.89,ENE,65,6.0,8.0,87,0.00,,,0.00,VWS V14.01,2015-08-27 08:27:00,
2015-08-27 02:32:00,83.1,78.8,29.89,ENE,73,5.0,9.0,87,0.00,,,0.00,VWS V14.01,2015-08-27 08:32:00,
2015-08-27 02:37:00,83.1,78.5,29.89,ENE,69,5.0,8.0,86,0.00,,,0.00,VWS V14.01,2015-08-27 08:37:00,
2015-08-27 02:42:00,83.0,78.4,29.89,ENE,75,5.0,8.0,86,0.00,,,0.00,VWS V14.01,2015-08-27 08:42:00,
2015-08-27 02:47:00,83.1,78.5,29.88,ENE,69,1.0,8.0,86,0.00,,,0.00,VWS V14.01,2015-08-27 08:47:00,
2015-08-27 02:52:00,83.1,78.8,29.88,ESE,113,3.0,8.0,87,0.00,,,0.00,VWS V14.01,2015-08-27 08:52:00,
2015-08-27 02:57:00,83.0,78.7,29.88,ENE,69,7.0,8.0,87,0.00,,,0.00,VWS V14.01,2015-08-27 08:57:00,
2015-08-27 03:02:00,82.9,78.6,29.88,East,95,3.0,8.0,87,0.00,,,0.00,VWS V14.01,2015-08-27 09:02:00,
2015-08-27 03:07:00,82.9,78.6,29.88,East,96,3.0,6.0,87,0.00,,,0.00,VWS V14.01,2015-08-27 09:07:00,
2015-08-27 03:12:00,82.8,78.5,29.88,ENE,68,0.0,6.0,87,0.00,,,0.00,VWS V14.01,2015-08-27 09:12:00,
2015-08-27 03:17:00,82.8,78.5,29.88,ENE,70,5.0,6.0,87,0.00,,,0.00,VWS V14.01,2015-08-27 09:17:00,
2015-08-27 03:22:00,82.7,78.4,29.88,ENE,69,2.0,6.0,87,0.00,,,0.00,VWS V14.01,2015-08-27 09:22:00,
2015-08-27 03:27:00,82.6,78.3,29.88,ENE,66,0.0,6.0,87,0.00,,,0.00,VWS V14.01,2015-08-27 09:27:00,
2015-08-27 03:32:00,82.0,77.4,29.87,East,86,2.0,6.0,86,0.00,,,0.00,VWS V14.01,2015-08-27 09:32:00,
2015-08-27 03:37:00,82.0,77.4,29.87,East,86,2.0,2.0,86,0.00,,,0.00,VWS V14.01,2015-08-27 09:37:00,
2015-08-27 03:42:00,82.0,77.4,29.87,East,86,2.0,2.0,86,0.00,,,0.00,VWS V14.01,2015-08-27 09:42:00,
2015-08-27 03:47:00,82.0,77.4,29.87,East,86,2.0,2.0,86,0.00,,,0.00,VWS V14.01,2015-08-27 09:47:00,
2015-08-27 03:52:00,82.0,77.4,29.87,East,86,2.0,2.0,86,0.00,,,0.00,VWS V14.01,2015-08-27 09:52:00,
2015-08-27 03:57:00,82.0,77.4,29.87,East,86,2.0,2.0,86,0.00,,,0.00,VWS V14.01,2015-08-27 09:57:00,
2015-08-27 04:02:00,82.0,77.4,29.87,East,86,2.0,2.0,86,0.00,,,0.00,VWS V14.01,2015-08-27 10:02:00,
2015-08-27 04:07:00,82.0,77.4,29.87,East,86,2.0,2.0,86,0.00,,,0.00,VWS V14.01,2015-08-27 10:07:00,
2015-08-27 04:12:00,82.0,77.4,29.87,East,86,2.0,2.0,86,0.00,,,0.00,VWS V14.01,2015-08-27 10:12:00,
2015-08-27 04:17:00,82.0,77.4,29.87,East,86,2.0,2.0,86,0.00,,,0.00,VWS V14.01,2015-08-27 10:17:00,
2015-08-27 04:22:00,82.0,77.4,29.87,East,86,2.0,2.0,86,0.00,,,0.00,VWS V14.01,2015-08-27 10:22:00,
2015-08-27 04:27:00,82.0,77.4,29.87,East,86,2.0,2.0,86,0.00,,,0.00,VWS V14.01,2015-08-27 10:27:00,
2015-08-27 04:32:00,82.0,77.4,29.87,East,86,2.0,2.0,86,0.00,,,0.00,VWS V14.01,2015-08-27 10:32:00,
2015-08-27 04:35:00,82.0,77.4,29.87,East,86,2.0,2.0,86,0.00,,,0.00,VWS V14.01,2015-08-27 10:35:00,
2015-08-27 04:40:00,82.0,77.4,29.86,East,86,2.0,2.0,86,0.00,,,0.00,VWS V14.01,2015-08-27 10:40:00,
2015-08-27 04:45:00,82.0,77.4,29.86,East,86,2.0,2.0,86,0.00,,,0.00,VWS V14.01,2015-08-27 10:45:00,
2015-08-27 04:50:00,82.0,77.4,29.86,East,86,2.0,2.0,86,0.00,,,0.00,VWS V14.01,2015-08-27 10:50:00,
2015-08-27 04:55:00,82.0,77.4,29.87,East,86,2.0,2.0,86,0.00,,,0.00,VWS V14.01,2015-08-27 10:55:00,
2015-08-27 05:00:00,82.0,77.4,29.87,East,86,2.0,2.0,86,0.00,,,0.00,VWS V14.01,2015-08-27 11:00:00,
2015-08-27 05:05:00,82.0,77.4,29.87,East,86,2.0,2.0,86,0.00,,,0.00,VWS V14.01,2015-08-27 11:05:00,
2015-08-27 05:10:00,82.0,77.4,29.87,East,86,2.0,2.0,86,0.00,,,0.00,VWS V14.01,2015-08-27 11:10:00,
2015-08-27 05:15:00,82.0,77.4,29.87,East,86,2.0,2.0,86,0.00,,,0.00,VWS V14.01,2015-08-27 11:15:00,
2015-08-27 05:20:00,82.0,77.4,29.87,East,86,2.0,2.0,86,0.00,,,0.00,VWS V14.01,2015-08-27 11:20:00,
2015-08-27 05:25:00,82.0,77.4,29.87,East,86,2.0,2.0,86,0.00,,,0.00,VWS V14.01,2015-08-27 11:25:00,
2015-08-27 05:30:00,82.0,77.4,29.87,East,86,2.0,2.0,86,0.00,,,0.00,VWS V14.01,2015-08-27 11:30:00,
2015-08-27 05:35:00,82.0,77.4,29.87,East,86,2.0,2.0,86,0.00,,,0.00,VWS V14.01,2015-08-27 11:35:00,
2015-08-27 05:40:00,82.0,77.4,29.88,East,86,2.0,2.0,86,0.00,,,0.00,VWS V14.01,2015-08-27 11:40:00,
2015-08-27 05:45:00,82.0,77.4,29.88,East,86,2.0,2.0,86,0.00,,,0.00,VWS V14.01,2015-08-27 11:45:00,
2015-08-27 05:50:00,82.0,77.4,29.88,East,86,2.0,2.0,86,0.00,,,0.00,VWS V14.01,2015-08-27 11:50:00,
2015-08-27 05:55:00,82.0,77.4,29.88,East,86,2.0,2.0,86,0.00,,,0.00,VWS V14.01,2015-08-27 11:55:00,
2015-08-27 06:00:00,82.0,77.4,29.88,East,86,2.0,2.0,86,0.00,,,0.00,VWS V14.01,2015-08-27 12:00:00,
2015-08-27 06:05:00,82.9,78.6,29.89,NE,50,1.0,4.0,87,0.00,,,0.00,VWS V14.01,2015-08-27 12:05:00,
2015-08-27 06:10:00,83.0,78.4,29.89,NE,49,1.0,4.0,86,0.00,,,0.00,VWS V14.01,2015-08-27 12:10:00,
2015-08-27 06:15:00,83.1,78.5,29.89,ENE,61,2.0,5.0,86,0.00,,,0.00,VWS V14.01,2015-08-27 12:15:00,
2015-08-27 06:20:00,83.3,78.7,29.89,ENE,63,2.0,5.0,86,0.00,,,0.00,VWS V14.01,2015-08-27 12:20:00,
2015-08-27 06:25:00,83.8,79.2,29.90,ENE,75,3.0,9.0,86,0.00,,,0.00,VWS V14.01,2015-08-27 12:25:00,
2015-08-27 06:30:00,84.0,79.0,29.90,ENE,65,3.0,9.0,85,0.00,,,0.00,VWS V14.01,2015-08-27 12:30:00,
2015-08-27 06:35:00,84.2,79.2,29.91,ENE,63,4.0,6.0,85,0.00,,,0.00,VWS V14.01,2015-08-27 12:35:00,
2015-08-27 06:40:00,84.5,79.1,29.91,ENE,77,1.0,10.0,84,0.00,,,0.00,VWS V14.01,2015-08-27 12:40:00,
2015-08-27 06:45:00,84.6,79.2,29.91,East,91,2.0,10.0,84,0.00,,,0.00,VWS V14.01,2015-08-27 12:45:00,
2015-08-27 06:50:00,84.9,79.5,29.92,ENE,70,6.0,10.0,84,0.00,,,0.00,VWS V14.01,2015-08-27 12:50:00,
2015-08-27 06:55:00,84.8,79.1,29.92,ENE,60,5.0,10.0,83,0.00,,,0.00,VWS V14.01,2015-08-27 12:55:00,
2015-08-27 07:00:00,84.7,79.0,29.92,ENE,70,2.0,10.0,83,0.00,,,0.00,VWS V14.01,2015-08-27 13:00:00,
2015-08-27 07:05:00,84.5,79.1,29.92,ENE,69,6.0,7.0,84,0.00,,,0.00,VWS V14.01,2015-08-27 13:05:00,
2015-08-27 07:10:00,84.3,78.9,29.92,ENE,70,2.0,7.0,84,0.00,,,0.00,VWS V14.01,2015-08-27 13:10:00,
2015-08-27 07:15:00,84.2,78.8,29.92,ENE,68,1.0,8.0,84,0.00,,,0.00,VWS V14.01,2015-08-27 13:15:00,
2015-08-27 07:20:00,84.3,79.3,29.92,East,95,2.0,8.0,85,0.00,,,0.00,VWS V14.01,2015-08-27 13:20:00,
2015-08-27 07:25:00,84.4,79.0,29.92,ENE,63,6.0,8.0,84,0.00,,,0.00,VWS V14.01,2015-08-27 13:25:00,
2015-08-27 07:30:00,84.5,79.1,29.92,East,79,1.0,8.0,84,0.00,,,0.00,VWS V14.01,2015-08-27 13:30:00,
2015-08-27 07:35:00,84.9,79.2,29.92,East,93,3.0,8.0,83,0.00,,,0.00,VWS V14.01,2015-08-27 13:35:00,
2015-08-27 07:40:00,85.3,79.6,29.92,NE,53,0.0,8.0,83,0.00,,,0.00,VWS V14.01,2015-08-27 13:40:00,
2015-08-27 07:45:00,85.7,79.2,29.93,ENE,71,4.0,8.0,81,0.00,,,0.00,VWS V14.01,2015-08-27 13:45:00,
2015-08-27 07:50:00,85.8,79.3,29.93,ENE,67,5.0,8.0,81,0.00,,,0.00,VWS V14.01,2015-08-27 13:50:00,
2015-08-27 07:55:00,85.9,79.4,29.93,ENE,70,5.0,8.0,81,0.00,,,0.00,VWS V14.01,2015-08-27 13:55:00,
2015-08-27 08:00:00,85.8,79.3,29.93,ENE,75,3.0,8.0,81,0.00,,,0.00,VWS V14.01,2015-08-27 14:00:00,
2015-08-27 08:10:00,86.3,80.2,29.92,ENE,77,5.0,8.0,82,0.00,,,0.00,VWS V14.01,2015-08-27 14:10:00,
2015-08-27 08:15:00,86.6,80.1,29.92,SE,128,3.0,8.0,81,0.00,,,0.00,VWS V14.01,2015-08-27 14:15:00,
2015-08-27 08:20:00,86.9,80.0,29.92,ESE,102,1.0,8.0,80,0.00,,,0.00,VWS V14.01,2015-08-27 14:20:00,
2015-08-27 08:25:00,86.9,79.6,29.93,East,99,2.0,8.0,79,0.00,,,0.00,VWS V14.01,2015-08-27 14:25:00,
2015-08-27 08:30:00,86.9,80.0,29.92,SE,132,2.0,8.0,80,0.00,,,0.00,VWS V14.01,2015-08-27 14:30:00,
2015-08-27 08:35:00,87.4,80.5,29.92,NE,52,1.0,4.0,80,0.00,,,0.00,VWS V14.01,2015-08-27 14:35:00,
2015-08-27 08:40:00,87.4,79.7,29.93,SE,124,1.0,5.0,78,0.00,,,0.00,VWS V14.01,2015-08-27 14:40:00,
2015-08-27 08:45:00,87.6,79.9,29.93,East,89,2.0,7.0,78,0.00,,,0.00,VWS V14.01,2015-08-27 14:45:00,
2015-08-27 08:50:00,87.5,79.8,29.93,East,79,2.0,7.0,78,0.00,,,0.00,VWS V14.01,2015-08-27 14:50:00,
2015-08-27 08:55:00,87.6,79.9,29.94,SE,124,3.0,7.0,78,0.00,,,0.00,VWS V14.01,2015-08-27 14:55:00,
2015-08-27 09:00:00,87.6,79.5,29.94,SE,129,5.0,7.0,77,0.00,,,0.00,VWS V14.01,2015-08-27 15:00:00,
2015-08-27 09:05:00,87.7,79.6,29.94,ESE,122,3.0,6.0,77,0.00,,,0.00,VWS V14.01,2015-08-27 15:05:00,
2015-08-27 09:10:00,87.8,79.3,29.94,East,84,0.0,6.0,76,0.00,,,0.00,VWS V14.01,2015-08-27 15:10:00,
2015-08-27 09:15:00,87.9,79.4,29.94,SE,145,2.0,6.0,76,0.00,,,0.00,VWS V14.01,2015-08-27 15:15:00,
2015-08-27 09:20:00,88.7,80.2,29.94,East,94,2.0,6.0,76,0.00,,,0.00,VWS V14.01,2015-08-27 15:20:00,
2015-08-27 09:25:00,88.8,79.9,29.94,ESE,119,3.0,6.0,75,0.00,,,0.00,VWS V14.01,2015-08-27 15:25:00,
2015-08-27 09:30:00,88.1,79.6,29.94,NE,56,2.0,6.0,76,0.00,,,0.00,VWS V14.01,2015-08-27 15:30:00,
2015-08-27 09:35:00,87.5,79.0,29.94,East,101,2.0,6.0,76,0.00,,,0.00,VWS V14.01,2015-08-27 15:35:00,
2015-08-27 09:40:00,87.4,79.7,29.94,East,84,4.0,6.0,78,0.00,,,0.00,VWS V14.01,2015-08-27 15:40:00,
2015-08-27 09:45:00,87.2,78.7,29.94,East,98,1.0,9.0,76,0.00,,,0.00,VWS V14.01,2015-08-27 15:45:00,
2015-08-27 09:50:00,87.4,79.3,29.94,NE,53,4.0,9.0,77,0.00,,,0.00,VWS V14.01,2015-08-27 15:50:00,
2015-08-27 09:55:00,87.6,79.1,29.94,ENE,72,1.0,9.0,76,0.00,,,0.00,VWS V14.01,2015-08-27 15:55:00,
2015-08-27 10:00:00,88.3,79.8,29.93,East,82,4.0,9.0,76,0.00,,,0.00,VWS V14.01,2015-08-27 16:00:00,
2015-08-27 10:05:00,87.9,79.4,29.94,NE,47,0.0,4.0,76,0.00,,,0.00,VWS V14.01,2015-08-27 16:05:00,
2015-08-27 10:10:00,88.2,79.3,29.94,ESE,118,4.0,5.0,75,0.00,,,0.00,VWS V14.01,2015-08-27 16:10:00,
2015-08-27 10:15:00,88.1,80.0,29.93,ENE,70,2.0,7.0,77,0.00,,,0.00,VWS V14.01,2015-08-27 16:15:00,
2015-08-27 10:20:00,89.2,79.8,29.93,East,85,0.0,7.0,74,0.00,,,0.00,VWS V14.01,2015-08-27 16:20:00,
2015-08-27 10:25:00,88.6,78.8,29.93,East,85,4.0,7.0,73,0.00,,,0.00,VWS V14.01,2015-08-27 16:25:00,
2015-08-27 10:30:00,88.3,79.8,29.93,East,79,3.0,7.0,76,0.00,,,0.00,VWS V14.01,2015-08-27 16:30:00,
2015-08-27 10:35:00,88.5,79.2,29.92,North,10,6.0,6.0,74,0.00,,,0.00,VWS V14.01,2015-08-27 16:35:00,
2015-08-27 10:40:00,88.8,79.4,29.93,ENE,77,2.0,6.0,74,0.00,,,0.00,VWS V14.01,2015-08-27 16:40:00,
2015-08-27 10:45:00,88.2,79.3,29.92,ENE,74,2.0,7.0,75,0.00,,,0.00,VWS V14.01,2015-08-27 16:45:00,
2015-08-27 10:50:00,87.9,79.0,29.92,SE,126,0.0,7.0,75,0.00,,,0.00,VWS V14.01,2015-08-27 16:50:00,
2015-08-27 10:55:00,88.6,79.7,29.92,East,79,2.0,7.0,75,0.00,,,0.00,VWS V14.01,2015-08-27 16:55:00,
2015-08-27 11:00:00,89.1,80.1,29.92,East,79,4.0,7.0,75,0.00,,,0.00,VWS V14.01,2015-08-27 17:00:00,
2015-08-27 11:05:00,89.2,79.4,29.92,ESE,110,3.0,4.0,73,0.00,,,0.00,VWS V14.01,2015-08-27 17:05:00,
2015-08-27 11:10:00,88.4,79.5,29.92,ESE,113,6.0,6.0,75,0.00,,,0.00,VWS V14.01,2015-08-27 17:10:00,
2015-08-27 11:15:00,88.8,79.4,29.92,NE,51,4.0,7.0,74,0.00,,,0.00,VWS V14.01,2015-08-27 17:15:00,
2015-08-27 11:20:00,88.5,78.3,29.92,SSE,149,0.0,7.0,72,0.00,,,0.00,VWS V14.01,2015-08-27 17:20:00,
2015-08-27 11:25:00,88.8,78.6,29.92,ESE,120,0.0,7.0,72,0.00,,,0.00,VWS V14.01,2015-08-27 17:25:00,
2015-08-27 11:30:00,88.7,78.9,29.92,East,82,4.0,8.0,73,0.00,,,0.00,VWS V14.01,2015-08-27 17:30:00,
2015-08-27 11:35:00,88.8,79.9,29.92,NE,37,3.0,9.0,75,0.00,,,0.00,VWS V14.01,2015-08-27 17:35:00,
2015-08-27 11:40:00,88.4,79.5,29.92,North,356,0.0,9.0,75,0.00,,,0.00,VWS V14.01,2015-08-27 17:40:00,
2015-08-27 11:45:00,88.7,79.3,29.92,ENE,70,7.0,9.0,74,0.00,,,0.00,VWS V14.01,2015-08-27 17:45:00,
2015-08-27 11:50:00,88.3,79.4,29.92,ENE,70,3.0,9.0,75,0.00,,,0.00,VWS V14.01,2015-08-27 17:50:00,
2015-08-27 11:55:00,88.0,79.5,29.91,East,84,7.0,9.0,76,0.00,,,0.00,VWS V14.01,2015-08-27 17:55:00,
2015-08-27 12:00:00,88.3,80.2,29.91,East,83,0.0,9.0,77,0.00,,,0.00,VWS V14.01,2015-08-27 18:00:00,
2015-08-27 12:05:00,88.6,80.5,29.91,ENE,70,8.0,8.0,77,0.00,,,0.00,VWS V14.01,2015-08-27 18:05:00,
2015-08-27 12:10:00,89.0,79.6,29.91,East,92,1.0,10.0,74,0.00,,,0.00,VWS V14.01,2015-08-27 18:10:00,
2015-08-27 12:14:00,88.5,79.6,29.90,ENE,66,2.0,10.0,75,0.00,,,0.00,VWS V14.01,2015-08-27 18:14:00,
2015-08-27 12:19:00,87.9,78.6,29.90,East,89,7.0,13.0,74,0.00,,,0.00,VWS V14.01,2015-08-27 18:19:00,
2015-08-27 12:24:00,87.9,79.8,29.90,NE,39,2.0,13.0,77,0.00,,,0.00,VWS V14.01,2015-08-27 18:24:00,
2015-08-27 12:29:00,88.3,79.0,29.90,ENE,75,3.0,13.0,74,0.00,,,0.00,VWS V14.01,2015-08-27 18:29:00,
2015-08-27 12:34:00,88.9,79.5,29.89,ENE,77,0.0,6.0,74,0.00,,,0.00,VWS V14.01,2015-08-27 18:34:00,
2015-08-27 12:39:00,89.0,79.2,29.89,East,82,3.0,11.0,73,0.00,,,0.00,VWS V14.01,2015-08-27 18:39:00,
2015-08-27 12:44:00,89.7,79.1,29.89,NE,51,4.0,11.0,71,0.00,,,0.00,VWS V14.01,2015-08-27 18:44:00,
2015-08-27 12:49:00,90.0,78.9,29.89,SE,128,2.0,11.0,70,0.00,,,0.00,VWS V14.01,2015-08-27 18:49:00,
2015-08-27 12:54:00,91.0,79.9,29.88,NNW,343,0.0,11.0,70,0.00,,,0.00,VWS V14.01,2015-08-27 18:54:00,
2015-08-27 12:59:00,91.3,79.7,29.88,NNE,25,0.0,11.0,69,0.00,,,0.00,VWS V14.01,2015-08-27 18:59:00,
2015-08-27 13:04:00,90.6,79.0,29.88,East,89,2.0,8.0,69,0.00,,,0.00,VWS V14.01,2015-08-27 19:04:00,
2015-08-27 13:09:00,90.5,78.9,29.88,East,100,2.0,8.0,69,0.00,,,0.00,VWS V14.01,2015-08-27 19:09:00,
2015-08-27 13:14:00,90.3,78.8,29.88,NE,41,7.0,9.0,69,0.00,,,0.00,VWS V14.01,2015-08-27 19:14:00,
2015-08-27 13:19:00,89.9,78.8,29.88,ENE,65,3.0,9.0,70,0.00,,,0.00,VWS V14.01,2015-08-27 19:19:00,
2015-08-27 13:24:00,90.2,78.2,29.88,NNE,15,2.0,10.0,68,0.00,,,0.00,VWS V14.01,2015-08-27 19:24:00,
2015-08-27 13:29:00,90.4,79.3,29.88,NW,323,0.0,10.0,70,0.00,,,0.00,VWS V14.01,2015-08-27 19:29:00,
2015-08-27 13:34:00,90.3,78.8,29.87,East,87,9.0,11.0,69,0.00,,,0.00,VWS V14.01,2015-08-27 19:34:00,
2015-08-27 13:39:00,90.1,79.4,29.87,NNE,33,1.0,11.0,71,0.00,,,0.00,VWS V14.01,2015-08-27 19:39:00,
2015-08-27 13:44:00,90.4,79.3,29.87,WNW,290,2.0,11.0,70,0.00,,,0.00,VWS V14.01,2015-08-27 19:44:00,
2015-08-27 13:49:00,90.5,79.4,29.86,East,82,7.0,11.0,70,0.00,,,0.00,VWS V14.01,2015-08-27 19:49:00,
2015-08-27 13:54:00,90.0,79.3,29.87,NE,51,6.0,12.0,71,0.00,,,0.00,VWS V14.01,2015-08-27 19:54:00,
2015-08-27 13:59:00,89.5,79.7,29.87,NNE,22,3.0,12.0,73,0.00,,,0.00,VWS V14.01,2015-08-27 19:59:00,
2015-08-27 14:04:00,89.9,79.7,29.86,NNE,15,0.0,8.0,72,0.00,,,0.00,VWS V14.01,2015-08-27 20:04:00,
2015-08-27 14:14:00,90.0,80.2,29.86,North,359,1.0,10.0,73,0.00,,,0.00,VWS V14.01,2015-08-27 20:14:00,
2015-08-27 14:19:00,90.1,79.9,29.86,ENE,60,0.0,10.0,72,0.00,,,0.00,VWS V14.01,2015-08-27 20:19:00,
2015-08-27 14:24:00,89.7,80.3,29.86,NNW,341,1.0,10.0,74,0.00,,,0.00,VWS V14.01,2015-08-27 20:24:00,
2015-08-27 14:29:00,89.9,80.5,29.86,NNE,32,2.0,10.0,74,0.00,,,0.00,VWS V14.01,2015-08-27 20:29:00,
2015-08-27 14:34:00,89.4,79.6,29.85,NNW,334,2.0,4.0,73,0.00,,,0.00,VWS V14.01,2015-08-27 20:34:00,
2015-08-27 14:39:00,89.1,80.1,29.85,NNE,27,0.0,6.0,75,0.00,,,0.00,VWS V14.01,2015-08-27 20:39:00,
2015-08-27 14:44:00,89.0,79.6,29.84,NE,56,0.0,9.0,74,0.00,,,0.00,VWS V14.01,2015-08-27 20:44:00,
2015-08-27 14:49:00,88.3,79.4,29.84,NNE,23,2.0,9.0,75,0.00,,,0.00,VWS V14.01,2015-08-27 20:49:00,
2015-08-27 14:54:00,88.4,79.5,29.84,NE,34,2.0,9.0,75,0.00,,,0.00,VWS V14.01,2015-08-27 20:54:00,
2015-08-27 14:59:00,88.3,79.8,29.84,NNW,345,1.0,9.0,76,0.00,,,0.00,VWS V14.01,2015-08-27 20:59:00,
2015-08-27 15:04:00,88.3,79.8,29.84,NNW,330,3.0,5.0,76,0.00,,,0.00,VWS V14.01,2015-08-27 21:04:00,
2015-08-27 15:09:00,88.4,80.3,29.83,NNE,19,2.0,5.0,77,0.00,,,0.00,VWS V14.01,2015-08-27 21:09:00,
2015-08-27 15:14:00,88.3,79.8,29.83,ENE,67,3.0,8.0,76,0.00,,,0.00,VWS V14.01,2015-08-27 21:14:00,
2015-08-27 15:19:00,88.2,80.1,29.83,NNW,333,1.0,8.0,77,0.00,,,0.00,VWS V14.01,2015-08-27 21:19:00,
2015-08-27 15:24:00,88.3,79.8,29.83,NNE,32,4.0,10.0,76,0.00,,,0.00,VWS V14.01,2015-08-27 21:24:00,
2015-08-27 15:29:00,87.9,79.8,29.83,NW,316,3.0,10.0,77,0.00,,,0.00,VWS V14.01,2015-08-27 21:29:00,
2015-08-27 15:34:00,87.9,80.2,29.83,East,82,6.0,8.0,78,0.00,,,0.00,VWS V14.01,2015-08-27 21:34:00,
2015-08-27 15:39:00,88.0,80.3,29.83,East,79,0.0,8.0,78,0.00,,,0.00,VWS V14.01,2015-08-27 21:39:00,
2015-08-27 15:44:00,88.3,80.6,29.83,NNE,15,6.0,8.0,78,0.00,,,0.00,VWS V14.01,2015-08-27 21:44:00,
2015-08-27 15:49:00,88.6,80.5,29.83,ENE,69,5.0,8.0,77,0.00,,,0.00,VWS V14.01,2015-08-27 21:49:00,
2015-08-27 15:54:00,88.3,80.2,29.83,ENE,60,3.0,14.0,77,0.00,,,0.00,VWS V14.01,2015-08-27 21:54:00,
2015-08-27 15:59:00,88.4,80.3,29.83,NE,37,2.0,14.0,77,0.00,,,0.00,VWS V14.01,2015-08-27 21:59:00,
2015-08-27 16:04:00,88.3,80.2,29.83,ENE,66,0.0,8.0,77,0.00,,,0.00,VWS V14.01,2015-08-27 22:04:00,
2015-08-27 16:09:00,88.7,80.6,29.83,ENE,69,1.0,8.0,77,0.00,,,0.00,VWS V14.01,2015-08-27 22:09:00,
2015-08-27 16:14:00,88.5,80.0,29.83,ENE,72,5.0,10.0,76,0.00,,,0.00,VWS V14.01,2015-08-27 22:14:00,
2015-08-27 16:19:00,88.4,79.9,29.83,ENE,74,6.0,11.0,76,0.00,,,0.00,VWS V14.01,2015-08-27 22:19:00,
2015-08-27 16:24:00,88.1,79.2,29.83,ENE,68,7.0,12.0,75,0.00,,,0.00,VWS V14.01,2015-08-27 22:24:00,
2015-08-27 16:29:00,88.1,79.2,29.84,ENE,75,5.0,12.0,75,0.00,,,0.00,VWS V14.01,2015-08-27 22:29:00,
2015-08-27 16:34:00,88.1,79.2,29.83,NE,34,5.0,10.0,75,0.00,,,0.00,VWS V14.01,2015-08-27 22:34:00,
2015-08-27 16:39:00,87.6,78.7,29.83,East,101,7.0,10.0,75,0.00,,,0.00,VWS V14.01,2015-08-27 22:39:00,
2015-08-27 16:44:00,87.2,78.7,29.84,East,84,3.0,10.0,76,0.00,,,0.00,VWS V14.01,2015-08-27 22:44:00,
2015-08-27 16:49:00,87.0,78.9,29.84,ENE,63,4.0,10.0,77,0.00,,,0.00,VWS V14.01,2015-08-27 22:49:00,
2015-08-27 16:54:00,87.0,78.9,29.84,NE,49,5.0,10.0,77,0.00,,,0.00,VWS V14.01,2015-08-27 22:54:00,
2015-08-27 16:59:00,86.8,79.1,29.84,ESE,103,0.0,10.0,78,0.00,,,0.00,VWS V14.01,2015-08-27 22:59:00,
2015-08-27 17:04:00,86.8,79.1,29.85,East,97,2.0,8.0,78,0.00,,,0.00,VWS V14.01,2015-08-27 23:04:00,
2015-08-27 17:09:00,87.0,79.7,29.85,East,86,5.0,10.0,79,0.00,,,0.00,VWS V14.01,2015-08-27 23:09:00,
2015-08-27 17:14:00,86.9,79.6,29.84,East,79,2.0,10.0,79,0.00,,,0.00,VWS V14.01,2015-08-27 23:14:00,
2015-08-27 17:19:00,86.8,79.9,29.84,ENE,72,5.0,11.0,80,0.00,,,0.00,VWS V14.01,2015-08-27 23:19:00,
2015-08-27 17:24:00,86.6,79.7,29.84,ENE,75,8.0,13.0,80,0.00,,,0.00,VWS V14.01,2015-08-27 23:24:00,
2015-08-27 17:29:00,86.6,80.1,29.85,East,86,5.0,13.0,81,0.00,,,0.00,VWS V14.01,2015-08-27 23:29:00,
2015-08-27 17:34:00,86.4,79.5,29.85,ENE,58,4.0,5.0,80,0.00,,,0.00,VWS V14.01,2015-08-27 23:34:00,
2015-08-27 17:39:00,86.4,79.1,29.85,NNE,17,0.0,6.0,79,0.00,,,0.00,VWS V14.01,2015-08-27 23:39:00,
2015-08-27 17:44:00,86.4,79.5,29.85,NE,56,0.0,12.0,80,0.00,,,0.00,VWS V14.01,2015-08-27 23:44:00,
2015-08-27 17:49:00,86.4,79.5,29.85,ENE,76,2.0,12.0,80,0.00,,,0.00,VWS V14.01,2015-08-27 23:49:00,
2015-08-27 17:54:00,86.4,79.9,29.85,ENE,70,3.0,12.0,81,0.00,,,0.00,VWS V14.01,2015-08-27 23:54:00,
2015-08-27 17:59:00,86.2,79.7,29.85,ENE,65,6.0,12.0,81,0.00,,,0.00,VWS V14.01,2015-08-27 23:59:00,
2015-08-27 18:04:00,86.1,79.2,29.85,ENE,65,4.0,8.0,80,0.00,,,0.00,VWS V14.01,2015-08-28 00:04:00,
2015-08-27 18:09:00,86.0,79.1,29.86,NE,52,0.0,13.0,80,0.00,,,0.00,VWS V14.01,2015-08-28 00:09:00,
2015-08-27 18:14:00,86.0,79.5,29.86,ENE,63,1.0,13.0,81,0.00,,,0.00,VWS V14.01,2015-08-28 00:14:00,
2015-08-27 18:19:00,86.0,79.5,29.86,ENE,76,0.0,13.0,81,0.00,,,0.00,VWS V14.01,2015-08-28 00:19:00,
2015-08-27 18:24:00,85.9,79.4,29.86,North,6,1.0,13.0,81,0.00,,,0.00,VWS V14.01,2015-08-28 00:24:00,
2015-08-27 18:29:00,85.9,79.4,29.87,NE,42,0.0,13.0,81,0.00,,,0.00,VWS V14.01,2015-08-28 00:29:00,
2015-08-27 18:34:00,85.8,79.7,29.87,ENE,76,5.0,5.0,82,0.00,,,0.00,VWS V14.01,2015-08-28 00:34:00,
2015-08-27 18:39:00,85.7,79.6,29.87,ENE,68,5.0,6.0,82,0.00,,,0.00,VWS V14.01,2015-08-28 00:39:00,